[[{"header":{"parameterUnit":"m.s-1","parameterCategory":1,"la1":30.2991,"la2":30.254,"lo1":-89.0895,"lo2":-89.0444,"dy":0.0017,"dx":0.0017,"nx":28,"ny":28,"refTime":"2025-12-26T09:00:00:Z","depth":0,"parameterNumber":2,"parameterNumberName":"U-component_of_WINDS"},"data":[0,0,0,0,0,0,0,0,0,0,0,0,0,0,0,0,0,0,0,0,0,0,0,0,0,0,0,0,0,0,0,0,0,0,0,0,0,0,0,0,0,0,0,0,0,0,0,0,0,0,0,0,0,0,0,0,0,0,0.3041,0.3042,0,0.3138,0.3139,0.314,0.3185,0.3185,0.3185,0.3185,0.3288,0.3291,0.3294,0,0,0,0,0,0,0,0,0,0,0,0,0,0.29,0.2902,0.3041,0.3042,0.3043,0.3138,0.3139,0.3141,0.3185,0.3185,0.3185,0.3185,0.3287,0.3291,0.3294,0,0,0,0,0,0,0,0,0,0,0,0,0,0.2975,0.2903,0.3041,0.3077,0.3081,0.3138,0.3139,0.3141,0.3186,0.3185,0.3185,0.3185,0.3286,0.3291,0.3295,0.3323,0,0,0.3308,0.3309,0,0,0,0,0,0,0,0,0.2971,0.298,0.3071,0.3075,0.308,0.3149,0.3127,0.3202,0.3186,0.3146,0.3185,0.3185,0.3243,0.325,0.3269,0.3328,0.3332,0.3308,0.3311,0.3312,0.3314,0,0,0,0,0,0,0,0.2966,0.2977,0.308,0.3072,0.3077,0.309,0.3101,0.3142,0.3194,0.315,0.3153,0.3164,0.3245,0.3265,0.3272,0.3334,0.3308,0.3312,0.3314,0.3316,0.3423,0.3423,0,0,0,0,0,0,0.2954,0.2972,0.3077,0.3082,0.3024,0.3093,0.3105,0.3127,0.3194,0.3204,0.3164,0.3165,0.3258,0.3267,0.3275,0.3314,0.3312,0.3316,0.3319,0.3423,0.3423,0.3424,0,0,0,0,0,0,0.2951,0.2963,0.3073,0.3028,0.3043,0.3095,0.312,0.3129,0.3149,0.3204,0.3214,0.3174,0.3258,0.327,0.3311,0.3319,0.3318,0.3322,0.3422,0.3423,0.3423,0.3391,0,0,0,0,0,0,0.2946,0.2961,0.2971,0.3028,0.3045,0.3105,0.3121,0.3131,0.3156,0.3159,0.3216,0.3226,0.3259,0.3304,0.3315,0.3324,0.3325,0.3422,0.3423,0.3423,0.3392,0.3391,0.339,0,0,0,0,0,0.2941,0.2959,0.2972,0.2984,0.3059,0.3105,0.3115,0.3151,0.3156,0.3168,0.3203,0.3224,0.3316,0.3308,0.3321,0.3331,0.3422,0.3423,0.3423,0.3393,0.3391,0.339,0,0,0,0,0,0,0.2903,0.2967,0.2982,0.3018,0.3056,0.3113,0.3128,0.3148,0.3186,0.3188,0.3232,0.3245,0.3283,0.3311,0.3302,0.3363,0.3371,0.3374,0.3343,0.3342,0.3341,0.3334,0.3329,0,0,0,0,0,0.2899,0.293,0.2985,0.3012,0.303,0.3076,0.3097,0.3122,0.3163,0.318,0.3218,0.3259,0.3297,0.3321,0.3359,0.3396,0.341,0.341,0.3408,0.3407,0.341,0.3433,0.3434,0.3426,0.3426,0.3426,0,0,0.2891,0.293,0.2947,0.3005,0.3037,0.307,0.3089,0.3122,0.3147,0.3185,0.3227,0.3256,0.3305,0.3344,0.3364,0.3369,0.3415,0.3408,0.3407,0.341,0.3434,0.3435,0.3435,0.3426,0.3426,0.3426,0,0,0.2893,0.2924,0.2951,0.2983,0.303,0.3061,0.3067,0.3121,0.3142,0.3184,0.3214,0.3245,0.3309,0.3343,0.3368,0.3384,0.3405,0.3395,0.3389,0.3411,0.3412,0.3413,0.3419,0.3421,0.3397,0.3397,0.3397,0,0.2877,0.2926,0.2962,0.2994,0.302,0.3055,0.3083,0.3112,0.317,0.3188,0.3193,0.3275,0.331,0.3358,0.3362,0.3381,0.3391,0.3389,0.3408,0.341,0.3411,0.3418,0.342,0.3396,0.3396,0.3396,0.3396,0,0.2905,0.2938,0.2954,0.3009,0.3036,0.3066,0.3109,0.3132,0.3155,0.3185,0.3229,0.3272,0.3319,0.3333,0.3355,0.3385,0.3387,0.3399,0.3408,0.341,0.3417,0.342,0.3394,0.3394,0.3395,0.3395,0,0,0.2886,0.296,0.2965,0.2991,0.3047,0.3074,0.3106,0.3152,0.3172,0.3211,0.3241,0.3295,0.3307,0.3335,0.3362,0.3381,0.3393,0.3392,0.3394,0.3392,0.343,0.3421,0.3424,0.3407,0.3407,0.3408,0.3427,0,0.2896,0.2954,0.2988,0.3033,0.3065,0.3099,0.3127,0.3165,0.3195,0.3228,0.3262,0.3299,0.3312,0.333,0.335,0.3387,0.3401,0.3386,0.3436,0.3438,0.3424,0.3427,0.3418,0.3433,0.343,0.343,0.343,0,0.2916,0.2953,0.3001,0.3054,0.3069,0.3093,0.3139,0.3169,0.3214,0.3235,0.3267,0.3294,0.3331,0.3336,0.3389,0.3378,0.34,0.3422,0.3423,0.343,0.3435,0.3435,0.3439,0.3441,0.3435,0.3435,0.3434,0,0.2898,0.2961,0.2998,0.3019,0.3081,0.3098,0.3125,0.3169,0.3195,0.3235,0.3253,0.3297,0.3321,0.3356,0.3394,0.3394,0.3444,0.3452,0.3464,0.3463,0.3473,0.3472,0.3481,0.3486,0.3486,0.3486,0.3486,0,0.2907,0.2935,0.2991,0.3014,0.3047,0.3087,0.3119,0.3149,0.3188,0.3219,0.3251,0.3279,0.3328,0.3363,0.3393,0.3433,0.3444,0.3463,0.3471,0.346,0.3458,0.3477,0.3477,0.3486,0.3486,0.3486,0.3486,0,0.2893,0.2931,0.2974,0.303,0.3044,0.3066,0.3115,0.3139,0.317,0.3209,0.322,0.327,0.3313,0.3354,0.3412,0.3433,0.3473,0.3483,0.3457,0.3462,0.3471,0.347,0.3494,0.35,0.3499,0.3499,0.3499,0,0.2896,0.2919,0.2976,0.2999,0.3025,0.306,0.3086,0.3127,0.3153,0.3206,0.3225,0.3269,0.3307,0.3374,0.3417,0.3461,0.3474,0.3479,0.3481,0.347,0.3475,0.3474,0.3477,0.3478,0.3478,0.3477,0.3477,0,0.2898,0.2917,0.2952,0.2995,0.3025,0.3061,0.3099,0.3115,0.3164,0.3192,0.3235,0.3265,0.3324,0.3368,0.3418,0.3448,0.3471,0.3476,0.3482,0.3472,0.3456,0.3466,0.3455,0.3476,0.3476,0.3476,0.3476,0.3476,0.2894,0.2916,0.296,0.3,0.3032,0.3066,0.3092,0.3126,0.3163,0.3213,0.3235,0.328,0.3325,0.3394,0.3424,0.346,0.3466,0.3473,0.3475,0.3477,0.3475,0.3449,0.3469,0.3469,0.3469,0.347,0.347,0,0.2899,0.2929,0.2965,0.3016,0.3047,0.3065,0.3108,0.3133,0.3171,0.3211,0.3248,0.3299,0.3343,0.3388,0.3435,0.3456,0.3468,0.3467,0.3466,0.3473,0.3467,0.3458,0.3456,0.3456,0.3456,0.3456,0.3456,0.3456,0.2905,0.2944,0.2967,0.3022,0.3053,0.3095,0.3118,0.3151,0.3183,0.3238,0.3274,0.3303,0.3346,0.3397,0.3438,0.3451,0.3467,0.3463,0.3479,0.3472,0.3473,0.3474,0.3466,0.3466,0.3466,0.3483,0.3483,0.3483]},{"header":{"parameterUnit":"m.s-1","parameterCategory":1,"la1":30.2991,"la2":30.254,"lo1":-89.0895,"lo2":-89.0444,"dy":0.0017,"dx":0.0017,"nx":28,"ny":28,"refTime":"2025-12-26T09:00:00:Z","depth":0,"parameterNumber":3,"parameterNumberName":"V-component_of_WINDS"},"data":[0,0,0,0,0,0,0,0,0,0,0,0,0,0,0,0,0,0,0,0,0,0,0,0,0,0,0,0,0,0,0,0,0,0,0,0,0,0,0,0,0,0,0,0,0,0,0,0,0,0,0,0,0,0,0,0,0,0,2.1515,2.1516,0,2.1531,2.1531,2.1532,2.1515,2.1515,2.1514,2.1514,2.1528,2.1529,2.153,0,0,0,0,0,0,0,0,0,0,0,0,0,2.147,2.1471,2.1515,2.1516,2.1516,2.1531,2.1531,2.1532,2.1516,2.1515,2.1514,2.1513,2.1527,2.1529,2.153,0,0,0,0,0,0,0,0,0,0,0,0,0,2.1488,2.1472,2.1515,2.151,2.1509,2.1531,2.1531,2.1532,2.1516,2.1515,2.1514,2.1513,2.1527,2.1529,2.153,2.1557,0,0,2.1534,2.1535,0,0,0,0,0,0,0,0,2.1487,2.149,2.151,2.151,2.151,2.152,2.1521,2.154,2.1516,2.1513,2.1514,2.1513,2.1526,2.1527,2.1532,2.1558,2.1559,2.1534,2.1535,2.1536,2.1536,0,0,0,0,0,0,0,2.1486,2.1489,2.1522,2.1511,2.151,2.1506,2.1508,2.1524,2.1525,2.1513,2.1512,2.1514,2.1526,2.1531,2.1533,2.1559,2.1534,2.1536,2.1537,2.1537,2.1609,2.161,0,0,0,0,0,0,2.1486,2.1488,2.1521,2.1522,2.1496,2.1508,2.1509,2.1518,2.1524,2.1524,2.1515,2.1514,2.1529,2.1531,2.1533,2.1567,2.1536,2.1537,2.1538,2.1608,2.1609,2.1611,0,0,0,0,0,0,2.1485,2.1489,2.152,2.1505,2.1509,2.1509,2.1519,2.1519,2.1524,2.1526,2.1526,2.1521,2.1528,2.1531,2.1552,2.1567,2.1538,2.1539,2.1607,2.1609,2.161,2.1634,0,0,0,0,0,0,2.1484,2.1489,2.1499,2.1505,2.151,2.1539,2.152,2.152,2.1527,2.1525,2.1531,2.1531,2.1528,2.155,2.1553,2.1568,2.154,2.1606,2.1608,2.161,2.1631,2.1636,2.1639,0,0,0,0,0,2.1482,2.1504,2.15,2.1504,2.1523,2.154,2.1543,2.1539,2.1528,2.1539,2.154,2.1531,2.1565,2.1552,2.1556,2.1572,2.1605,2.1607,2.1609,2.163,2.1635,2.1639,0,0,0,0,0,0,2.1499,2.1505,2.15,2.1525,2.1533,2.1538,2.1551,2.1545,2.1555,2.1552,2.1547,2.1548,2.1571,2.1573,2.1559,2.1599,2.1583,2.1586,2.1597,2.1602,2.1606,2.1605,2.1542,0,0,0,0,0,2.1506,2.152,2.1524,2.1546,2.155,2.155,2.1557,2.1554,2.1561,2.1564,2.1567,2.1573,2.1586,2.1594,2.1605,2.1632,2.1633,2.1644,2.1648,2.1652,2.1655,2.167,2.1675,2.1618,2.1618,2.1618,0,0,2.152,2.1525,2.1534,2.155,2.1555,2.157,2.1553,2.1568,2.1579,2.1566,2.1587,2.1589,2.1596,2.162,2.1631,2.1623,2.1671,2.1655,2.1657,2.1658,2.1673,2.1678,2.1683,2.162,2.162,2.1619,0,0,2.1553,2.1558,2.1577,2.1583,2.1592,2.1592,2.1597,2.1603,2.1605,2.1625,2.1616,2.1628,2.1649,2.1655,2.1661,2.1698,2.169,2.1702,2.1723,2.1738,2.1742,2.1746,2.176,2.1765,2.1704,2.1705,2.1705,0,2.1569,2.1591,2.1588,2.1605,2.1612,2.1602,2.1622,2.1628,2.1639,2.1645,2.1635,2.1663,2.1666,2.1693,2.1702,2.1706,2.1712,2.1701,2.1742,2.1746,2.1749,2.1763,2.1768,2.1706,2.1706,2.1706,2.1705,0,2.1611,2.1626,2.1641,2.1654,2.1663,2.1681,2.168,2.169,2.1686,2.1687,2.1709,2.1713,2.1726,2.1732,2.1728,2.1758,2.1752,2.1743,2.1726,2.1756,2.1769,2.1774,2.1708,2.1707,2.1707,2.1707,0,0,2.1654,2.1666,2.1672,2.1678,2.1688,2.1699,2.1717,2.1731,2.1739,2.1748,2.1763,2.1782,2.1773,2.178,2.1776,2.1789,2.182,2.1778,2.1778,2.1786,2.1854,2.1862,2.1868,2.1814,2.1815,2.1816,2.1854,0,2.1689,2.1721,2.1719,2.1749,2.1764,2.1755,2.1771,2.1778,2.178,2.1793,2.1794,2.1808,2.1795,2.1799,2.1811,2.1813,2.1833,2.181,2.1829,2.1829,2.1828,2.1874,2.1882,2.1917,2.1858,2.1859,2.186,0,2.1732,2.1744,2.1776,2.1785,2.1791,2.1805,2.1818,2.183,2.1839,2.1839,2.1847,2.1842,2.186,2.1843,2.1868,2.1853,2.186,2.1862,2.1864,2.1865,2.1847,2.1878,2.1928,2.1934,2.1867,2.1866,2.1866,0,2.1762,2.1786,2.1809,2.1814,2.1824,2.1835,2.1839,2.1847,2.1856,2.1866,2.1872,2.1884,2.1891,2.1901,2.1899,2.1887,2.1925,2.1908,2.1926,2.1927,2.1935,2.1935,2.1988,2.1939,2.1939,2.1939,2.1938,0,2.1801,2.1821,2.1822,2.1836,2.1859,2.1856,2.1879,2.1882,2.1889,2.1903,2.1896,2.1909,2.1906,2.1919,2.1918,2.194,2.1943,2.1943,2.1943,2.1945,2.1945,2.195,2.1947,2.194,2.194,2.1939,2.1939,0,2.1838,2.184,2.1864,2.1872,2.1875,2.1891,2.1898,2.1911,2.1913,2.1931,2.1935,2.1937,2.1953,2.1952,2.1969,2.1968,2.1995,2.1991,2.1993,2.1992,2.2011,2.201,2.207,2.2078,2.2023,2.2023,2.2024,0,2.1863,2.1879,2.1889,2.1899,2.1905,2.192,2.1929,2.1928,2.1937,2.1949,2.1961,2.1976,2.1988,2.2013,2.2016,2.2029,2.2026,2.2046,2.2028,2.203,2.2027,2.2027,2.2029,2.205,2.2051,2.2051,2.2052,0,2.1908,2.1908,2.1922,2.1937,2.1948,2.1959,2.197,2.1978,2.1977,2.1988,2.2005,2.2014,2.2033,2.2048,2.2061,2.2065,2.2059,2.2058,2.2063,2.2065,2.2065,2.2066,2.2004,2.2056,2.2056,2.2055,2.2055,2.2055,2.194,2.1954,2.1964,2.198,2.1988,2.1998,2.2012,2.2015,2.2029,2.2045,2.2043,2.2061,2.207,2.2087,2.2093,2.2107,2.21,2.2107,2.2109,2.2111,2.2113,2.2063,2.2109,2.2109,2.2109,2.2109,2.2109,0,2.1985,2.1991,2.2006,2.2022,2.2035,2.2028,2.2039,2.205,2.2067,2.2076,2.2089,2.2108,2.2123,2.2128,2.2142,2.2153,2.215,2.2157,2.2156,2.2158,2.2119,2.2113,2.2159,2.2159,2.2159,2.2159,2.2159,2.2159,2.201,2.2034,2.2035,2.2063,2.2069,2.2088,2.2096,2.2105,2.2112,2.2135,2.2148,2.2151,2.2158,2.2173,2.2187,2.2188,2.2194,2.2202,2.2201,2.2165,2.216,2.2155,2.215,2.2203,2.2203,2.2239,2.224,2.224]}]]